Other Public Products
Issued by NWS Charleston, SC

Current Version | Previous Version | Graphics & Text | Print | Product List | Glossary On
Versions: 1 2 3 4 5 6 7 8 9 10 11 12 13 14 15 16 17 18 19 20 21 22 23 24 25 26 27 28 29 30 31 32 33 34 35 36 37 38 39 40 41 42 43 44 45 46 47 48 49 50
000
FPUS82 KCHS 250027
OPUCHS

TEST...KCHS/KSAV Gateway Observations...TEST
National Weather Service Charleston SC
800 PM EDT MON JUL 24 2017

NOTE: "fair" indicates few or no clouds below 12,000 feet with no
significant weather and/or obstructions to visibility.

SCZ050-WAZ558-NCZ071-TXZ119-213-PAZ071-DCZ001-FLZ074-172-MI076-
NYZ176-178-MAZ016-IL014-TNZ027-NJZ106-GAZ044-MD014-250100-

...Gateway Observations for Charleston International...

CITY           SKY/WX    TMP DP  RH WIND       PRES   REMARKS
Chas Airport   TSTM      73  71  93 W14G20    30.02R VSB 1
6HR MIN TEMP:  76; 6HR MAX TEMP:  88; 6HR PCP: TRACE;

Seattle        MOSUNNY   80  53  39 NW9       29.95F
6HR MIN TEMP:  69; 6HR MAX TEMP:  82;

Charlotte      MOCLDY    86  71  60 SW7       29.96R HX  91
6HR MIN TEMP:  86; 6HR MAX TEMP:  92;

Dallas DFW     MOSUNNY   90  74  59 E10       29.92S HX  99
6HR MIN TEMP:  86; 6HR MAX TEMP:  92;

Dallas Love    MOSUNNY   90  74  59 SE12      29.93S HX  99
6HR MIN TEMP:  84; 6HR MAX TEMP:  91;

Philladelphia  MOCLDY    85  69  58 SW3       29.83R THUNDER
6HR MIN TEMP:  83; 6HR MAX TEMP:  88;

Wash National  PTCLDY    85  75  72 S7        29.81S HX  93
6HR MIN TEMP:  83; 6HR MAX TEMP:  91; 6HR PCP: TRACE;

Baltimore      MOCLDY    81  74  79 SW5       29.80F
6HR MIN TEMP:  81; 6HR MAX TEMP:  91;

Miami          MOCLDY    87  77  72 SE7       30.06R HX  99
6HR MIN TEMP:  87; 6HR MAX TEMP:  93;

Detroit        PTCLDY    72  53  51 N8        30.05R
6HR MIN TEMP:  67; 6HR MAX TEMP:  76;

Newark         TSTM      69  60  73 E8        29.88R
6HR MIN TEMP:  67; 6HR MAX TEMP:  72; 6HR PCP: TRACE;

Laguardia      PTCLDY    67  60  78 E13       29.87S
6HR MIN TEMP:  65; 6HR MAX TEMP:  70;

J F K          MOCLDY    67  61  81 NE12      29.88S
6HR MIN TEMP:  65; 6HR MAX TEMP:  71;

Boston Logan   LGT RAIN  59  58  96 NE18      29.91R FOG
6HR MIN TEMP:  57; 6HR MAX TEMP:  59; 6HR PCP:  0.85;

Ft. Lauderdale MOCLDY    86  77  74 SE10      30.05R HX  97
Chicago O`Hare MOSUNNY   70  58  65 NE10      30.07R
6HR MIN TEMP:  70; 6HR MAX TEMP:  74;

Chicago Midway MOSUNNY   71  59  65 NE10      30.07R
6HR MIN TEMP:  71; 6HR MAX TEMP:  75;

Houston Bush   PTSUNNY   92  68  45 S10       29.95S HX  96
6HR MIN TEMP:  91; 6HR MAX TEMP:  96;

Houston Hobby  CLOUDY    91  71  51 S15       29.97R HX  97
6HR MIN TEMP:  91; 6HR MAX TEMP:  96;

Nashville      CLOUDY    89  71  55 NE5       29.96R HX  95
6HR MIN TEMP:  88; 6HR MAX TEMP:  94;

Atlanta        CLOUDY    76  72  87 S5        30.00R
6HR MIN TEMP:  76; 6HR MAX TEMP:  91; 6HR PCP: TRACE;


$$

GAZ044-118-TXZ119-213-NCZ071-DCZ001-MDZ014-506-PAZ021-071-NJZ106-
NYZ176-178-MAZ106-OHZ011-021-055-MIZ076-KYZ091-ILZ014-INZ047-
MNZ060-ONZ431-250100-

...Gateway Observations for Savannah International...

CITY           SKY/WX    TMP DP  RH WIND       PRES   REMARKS
Savannah Arpt  MOCLDY    77  73  87 NW7       29.98R THUNDER
6HR MIN TEMP:  77; 6HR MAX TEMP:  93; 6HR PCP:  0.27;

Atlanta        CLOUDY    76  72  87 S5        30.00R
6HR MIN TEMP:  76; 6HR MAX TEMP:  91; 6HR PCP: TRACE;

Charlotte      MOCLDY    86  71  60 SW7       29.96R HX  91
6HR MIN TEMP:  86; 6HR MAX TEMP:  92;

Dallas DFW     MOSUNNY   90  74  59 E10       29.92S HX  99
6HR MIN TEMP:  86; 6HR MAX TEMP:  92;

Houston Bush   PTSUNNY   92  68  45 S10       29.95S HX  96
6HR MIN TEMP:  91; 6HR MAX TEMP:  96;

Wash National  PTCLDY    85  75  72 S7        29.81S HX  93
6HR MIN TEMP:  83; 6HR MAX TEMP:  91; 6HR PCP: TRACE;

Wash Dulles    MOCLDY    83  73  72 SW3       29.82S
6HR MIN TEMP:  82; 6HR MAX TEMP:  90; 6HR PCP: TRACE;

Baltimore      MOCLDY    81  74  79 SW5       29.80F
6HR MIN TEMP:  81; 6HR MAX TEMP:  91;

Philadelphia   MOCLDY    85  69  58 SW3       29.83R THUNDER
6HR MIN TEMP:  83; 6HR MAX TEMP:  88;

Newark         TSTM      69  60  73 E8        29.88R
6HR MIN TEMP:  67; 6HR MAX TEMP:  72; 6HR PCP: TRACE;

Laguardia      PTCLDY    67  60  78 E13       29.87S
6HR MIN TEMP:  65; 6HR MAX TEMP:  70;

J F K          MOCLDY    67  61  81 NE12      29.88S
6HR MIN TEMP:  65; 6HR MAX TEMP:  71;

Boston         LGT RAIN  59  58  96 NE18      29.91R FOG
6HR MIN TEMP:  57; 6HR MAX TEMP:  59; 6HR PCP:  0.85;

Pittsburg      PTCLDY    72  59  63 NW17      29.97R
6HR MIN TEMP:  72; 6HR MAX TEMP:  80; 6HR PCP: TRACE;

Akron          MOCLDY    68  57  68 NW8       30.01R
6HR MIN TEMP:  68; 6HR MAX TEMP:  77;

Cleveland      MOCLDY    71  56  58 N14G22    30.03R
6HR MIN TEMP:  70; 6HR MAX TEMP:  73; 6HR PCP: TRACE;

Cincinnati     PTCLDY    80  68  66 N8        29.99R
6HR MIN TEMP:  80; 6HR MAX TEMP:  86;

Columbus       CLEAR     72  59  63 N14       30.01R
Detroit        PTCLDY    72  53  51 N8        30.05R
6HR MIN TEMP:  67; 6HR MAX TEMP:  76;

Chicago O`Hare MOSUNNY   70  58  65 NE10      30.07R
6HR MIN TEMP:  70; 6HR MAX TEMP:  74;

Minneapolis    CLOUDY    76  60  57 SE9       30.03S
6HR MIN TEMP:  72; 6HR MAX TEMP:  79;

Indianapolis   MOSUNNY   79  63  57 N10       29.99R
6HR MIN TEMP:  78; 6HR MAX TEMP:  82;

Toronto Canada MOCLDY    63  57  82 N16       29.92R

$$




USA.gov is the U.S. government's official web portal to all federal, state and local government web resources and services.